SCP
0 0 0 0 0 0 0 0 0 0 0 0 0 0 0 0 0 1 1 1 1 1 1 1 1 1 1 1 1 1 1 1 1 1 0 0 0 0 0 0 0 0 0 0
0 0 0 0 0 0 0 0 0 0 0 0 0 0 0 0 0 1 1 1 1 1 1 1 1 1 1 1 1 1 1 1 1 1 0 0 0 0 0 0 0 0 0 0
0 0 0 0 0 0 0 0 0 0 0 0 0 0 0 0 0 1 1 1 1 1 1 1 1 1 1 1 1 1 1 1 1 1 0 0 0 0 0 0 0 0 0 0
0 0 0 0 0 0 0 0 0 0 0 0 0 0 0 0 0 1 1 1 1 1 1 1 1 1 1 1 1 1 1 1 1 1 1 1 0 0 0 0 0 0 0 0
0 0 0 0 0 0 0 0 0 0 0 0 0 0 0 0 0 0 1 1 1 1 1 1 1 1 1 1 1 1 1 1 1 1 1 1 1 0 0 0 0 0 0 0
0 0 0 0 0 0 0 0 0 0 0 0 0 0 0 0 0 0 0 1 1 1 1 1 1 1 1 1 1 1 1 1 1 1 1 1 1 0 0 0 0 0 0 0
0 0 0 0 0 0 0 0 0 0 0 0 0 0 0 0 0 0 0 1 1 1 1 1 1 1 1 1 1 1 1 1 1 1 1 1 1 1 0 0 0 0 0 0
0 0 0 0 0 0 0 0 0 0 0 0 0 0 0 0 0 0 1 1 1 1 1 1 1 1 1 1 1 1 1 1 1 1 1 1 1 1 0 0 0 0 0 0
0 0 0 0 0 0 0 0 -0 -0 0 0 0 0 0 0 0 1 1 1 1 1 1 1 2 2 2 1 1 1 1 1 1 1 1 1 1 0 0 0 0 0 0 0
0 0 0 0 0 0 0 0 0 0 0 0 0 0 0 0 1 1 1 1 1 1 1 1 1 2 2 2 2 2 2 1 1 1 1 1 1 0 0 0 0 0 0 0
0 0 0 0 0 0 0 0 0 0 0 0 0 0 0 0 1 1 1 1 1 1 1 1 1 2 2 2 2 2 2 1 1 1 1 1 1 1 0 0 0 0 0 0
0 0 0 0 0 0 0 0 0 0 0 0 0 0 0 0 1 1 1 1 1 1 1 2 2 2 2 2 2 2 2 1 1 1 1 1 1 1 0 0 0 0 0 0
0 0 0 0 0 0 0 0 0 0 0 0 0 0 0 1 1 1 1 2 2 2 2 2 2 2 2 2 1 1 1 1 1 1 1 1 1 0 0 0 0 0 0 0
0 0 -0 0 0 0 0 0 0 0 0 0 0 0 0 1 1 1 2 2 1 1 2 2 2 2 1 1 1 1 1 1 1 1 1 1 1 1 0 0 0 0 0 0
0 -0 -0 0 0 0 0 0 0 0 0 0 0 0 0 1 1 1 2 2 1 1 1 1 1 1 1 1 1 1 1 1 1 1 1 1 1 1 1 0 0 0 0 0
0 0 0 0 0 0 0 0 0 0 0 0 0 0 1 1 1 1 2 2 1 1 1 1 1 1 1 1 1 1 1 1 1 1 1 1 1 1 1 0 0 0 0 0
0 0 0 0 0 0 0 0 0 0 0 0 0 1 1 1 1 1 1 2 2 1 1 1 1 1 1 1 1 1 1 1 1 1 1 1 1 1 1 1 1 0 0 0
0 0 0 0 0 0 0 0 0 0 0 0 1 1 1 2 2 2 2 2 1 1 1 1 1 1 1 1 1 1 1 1 1 1 1 1 1 1 1 1 1 1 0 0
0 0 0 0 0 0 0 0 0 0 1 1 1 1 2 2 2 2 2 2 1 1 1 1 1 1 1 1 1 1 1 1 1 1 1 1 1 1 1 1 1 1 0 0
0 0 0 0 0 0 0 0 0 1 1 1 1 1 2 2 2 2 2 1 1 1 1 1 1 1 1 1 1 1 1 1 1 1 1 1 1 1 1 1 1 1 0 0
0 0 0 0 0 0 0 1 1 1 1 1 1 1 2 2 2 2 2 1 1 1 1 1 1 1 1 1 1 1 1 1 1 1 0 0 0 1 1 1 1 0 0 0
0 0 0 0 0 0 0 1 1 1 1 1 1 1 2 2 2 2 2 2 1 1 1 1 1 1 1 1 1 1 0 0 0 0 0 0 0 0 0 1 0 0 0 0
0 0 0 0 0 0 0 1 1 1 1 1 1 1 2 2 2 2 2 1 1 1 1 1 1 1 0 0 0 0 0 0 0 0 0 0 0 0 0 0 0 0 0 0
0 0 0 0 0 0 1 1 1 1 1 1 1 1 2 2 2 2 1 1 1 1 1 1 1 0 0 0 0 0 0 0 0 0 0 0 0 0 0 0 0 0 0 0
0 0 0 0 0 0 1 1 1 1 1 1 1 1 1 1 1 1 1 1 1 1 1 1 0 0 0 0 0 0 0 0 0 0 0 0 0 0 0 0 0 0 0 0
0 0 0 0 0 0 0 1 1 1 1 1 1 1 1 1 1 1 1 1 1 1 1 1 0 0 0 0 0 0 0 0 0 0 0 0 0 0 0 0 0 0 0 0
Wind_Speed
1 3 4 8 7 6 2 2 4 6 4 3 6 8 12 12 11 12 12 11 12 12 10 11 12 13 12 10 10 9 9 7 6 3 3 3 3 2 2 3 4 5 4 5
1 6 10 6 5 4 4 3 5 7 3 3 5 5 8 11 14 15 14 13 13 10 9 11 11 12 13 12 11 10 10 9 7 5 4 3 3 2 3 3 3 4 4 5
7 7 6 6 6 5 6 6 6 5 3 4 6 1 2 6 6 8 11 11 12 15 15 15 14 13 13 13 13 11 10 9 8 6 3 3 2 1 1 2 3 4 5 4
6 8 5 6 8 7 7 7 6 4 2 1 4 3 5 5 5 9 11 11 13 13 13 14 14 14 14 13 12 10 10 9 8 7 6 6 5 4 4 3 3 3 4 5
7 6 7 8 10 7 8 5 3 2 3 1 1 4 6 3 6 11 13 14 13 14 15 15 15 15 13 12 11 10 10 9 8 7 8 7 5 4 3 2 3 3 3 4
8 6 6 9 8 7 5 2 5 6 6 1 3 4 6 6 11 11 12 13 13 13 14 13 12 11 10 11 11 10 10 9 8 8 7 7 7 6 5 4 4 3 3 3
5 7 6 3 3 3 3 6 4 5 4 5 4 2 8 10 10 12 13 12 11 11 12 12 12 12 12 13 12 11 11 10 9 8 8 7 7 6 7 5 5 4 3 3
5 7 6 5 7 6 5 11 9 5 4 4 2 4 8 8 6 7 9 10 10 10 11 12 12 12 12 12 11 11 11 9 9 8 7 6 6 4 4 5 4 4 4 4
7 7 6 6 6 9 5 5 9 8 3 0 4 5 7 3 1 3 7 8 9 10 10 11 10 10 11 11 11 12 11 9 8 8 6 5 5 4 4 4 3 3 3 3
5 4 6 5 2 3 8 8 7 6 5 2 4 3 4 3 3 3 6 9 9 8 8 8 8 9 9 9 8 8 9 9 8 8 7 6 5 5 4 4 4 3 3 3
5 3 5 1 6 8 4 4 6 6 7 7 2 6 6 7 6 7 6 7 7 8 9 8 7 6 7 7 7 6 6 6 6 6 6 5 4 4 3 3 3 3 3 3
6 5 4 7 7 9 8 7 8 6 4 5 4 7 6 5 6 8 9 8 7 7 7 7 8 7 6 6 6 6 5 4 5 5 5 5 4 3 3 3 2 2 2 3
8 6 1 5 5 1 4 5 7 7 6 5 4 6 4 3 6 7 9 9 8 7 7 6 7 7 6 6 6 6 5 5 4 4 4 4 3 3 3 2 2 2 2 2
9 6 7 8 8 5 4 4 5 8 5 5 6 5 2 3 6 6 8 9 8 8 9 7 6 6 6 6 6 6 6 5 5 4 4 4 3 3 2 2 2 2 2 3
8 5 4 4 4 3 4 5 6 6 9 9 8 8 8 8 10 9 9 10 10 9 9 9 7 6 5 6 6 6 6 6 6 6 5 4 3 3 3 3 2 2 3 4
5 5 2 2 2 1 2 4 6 6 6 6 6 4 5 6 8 9 10 11 10 9 9 9 9 7 6 6 6 6 5 5 5 6 5 4 4 4 4 3 3 3 4 5
3 5 5 1 3 4 3 5 6 4 4 8 8 7 8 9 10 11 10 10 10 10 9 8 8 7 6 6 6 7 6 6 6 6 5 4 5 5 4 5 5 5 5 6
6 5 5 3 4 2 8 4 4 5 2 5 7 8 11 11 8 7 8 10 8 8 8 7 6 6 6 6 6 7 7 7 7 6 5 5 5 6 5 5 5 5 5 5
7 8 5 4 2 3 6 4 1 5 0 3 9 10 10 12 12 7 4 8 9 8 8 7 7 7 7 7 7 8 7 7 7 6 5 5 6 6 5 5 5 4 5 5
6 7 7 4 3 3 5 7 4 7 1 1 9 12 12 10 7 4 4 8 9 9 8 7 7 8 7 6 7 9 8 8 7 6 5 5 6 6 6 5 5 5 6 6
4 5 5 4 2 4 5 9 3 6 6 2 5 10 10 6 7 8 9 10 10 9 9 8 8 8 6 6 9 10 8 7 5 6 7 7 6 6 6 6 6 6 7 7
4 4 3 4 3 5 6 4 3 4 3 4 6 8 10 12 12 11 11 10 10 10 9 9 9 8 6 7 9 10 7 5 6 7 8 7 6 6 6 7 6 6 7 7
2 6 6 6 6 5 2 2 2 3 5 4 6 9 13 14 13 11 10 9 9 9 9 8 10 9 7 6 8 9 6 6 8 8 8 7 7 7 6 7 6 6 5 5
3 2 4 4 1 1 3 4 4 5 6 6 9 11 13 13 12 12 10 8 8 8 9 9 10 10 7 6 7 7 6 7 9 9 8 7 8 8 8 6 5 5 5 5
2 3 4 3 1 3 5 4 5 6 8 9 9 9 11 13 12 11 10 9 8 8 7 8 9 9 7 7 7 6 6 8 9 9 8 7 7 7 8 8 6 6 5 4
2 2 4 3 4 4 1 1 4 7 7 7 10 9 9 10 11 10 9 8 8 8 7 8 9 9 8 7 7 6 5 7 9 8 7 5 5 6 6 7 8 12 10 11
Wind_Direction
196 101 216 224 202 195 222 274 280 272 239 135 157 165 174 176 178 176 180 181 182 184 178 170 169 167 165 165 164 167 169 174 165 159 161 164 177 181 184 195 191 186 183 176
56 237 229 227 235 237 247 271 279 293 278 142 159 175 179 179 187 185 184 185 184 176 170 171 170 170 171 172 171 170 175 177 177 180 173 170 169 183 187 193 192 193 192 187
196 235 219 224 242 252 256 219 229 240 338 49 111 60 201 199 188 186 188 185 185 180 180 177 175 176 174 177 178 178 179 179 182 179 161 153 128 116 172 205 203 206 197 195
238 246 232 222 233 217 253 231 214 220 106 246 143 167 248 212 208 196 194 191 190 187 184 183 178 177 180 182 179 176 177 179 184 177 173 172 178 192 205 201 202 208 204 201
238 223 216 224 230 213 229 234 208 184 134 66 32 126 259 214 218 215 204 196 192 188 184 185 183 182 181 179 178 178 178 182 185 185 184 183 191 199 193 187 193 205 214 207
247 257 213 216 234 219 216 40 28 47 74 56 245 147 251 219 209 209 204 197 195 189 187 187 184 174 175 176 178 178 180 187 189 189 189 190 194 193 184 188 193 204 207 212
277 277 258 224 224 260 136 95 37 7 20 246 251 162 242 241 218 203 195 192 188 181 183 181 178 176 177 179 181 180 182 190 191 191 195 197 198 194 195 193 194 195 197 206
202 266 247 214 186 189 175 138 153 177 207 268 312 222 255 254 231 197 179 174 171 173 178 179 182 178 178 178 178 180 185 189 188 192 198 199 195 193 197 197 196 199 201 204
184 243 259 223 188 160 153 160 163 137 158 105 281 287 315 338 357 154 155 152 162 167 167 170 170 172 175 176 179 180 179 180 185 189 189 189 189 189 191 193 192 201 208 205
172 230 266 234 173 172 160 155 104 116 140 221 288 266 237 249 206 155 149 155 160 155 154 157 161 167 170 173 173 170 173 180 183 185 189 189 188 191 188 181 192 198 203 206
180 192 290 281 184 190 150 131 119 127 148 151 217 270 231 208 192 153 147 146 142 146 151 147 150 155 153 151 155 159 166 169 175 179 175 174 180 183 177 180 194 198 192 187
171 142 239 252 238 184 162 166 143 149 197 157 157 263 277 198 168 143 133 130 123 130 139 139 138 131 129 141 145 148 155 168 175 172 166 165 163 158 167 184 192 180 173 176
154 129 107 334 324 213 167 167 151 136 129 144 154 258 304 110 113 117 120 119 116 114 108 109 117 125 132 134 136 141 155 163 151 146 147 142 145 149 164 178 172 157 152 145
129 125 156 189 214 208 203 205 161 132 153 181 197 206 255 142 129 123 118 115 114 114 113 112 113 120 128 129 134 141 146 139 135 132 132 135 143 150 149 141 137 135 128 117
120 145 179 207 230 201 203 210 194 173 174 175 205 191 205 180 155 142 127 119 117 116 117 118 115 117 121 120 130 135 135 135 133 129 129 134 130 120 109 102 106 107 103 103
98 130 115 356 350 328 274 237 211 193 171 169 159 202 204 150 134 130 132 133 131 131 129 124 121 122 118 119 122 118 118 121 123 125 129 126 117 109 98 87 84 90 91 88
89 107 99 338 342 39 292 240 212 200 181 162 179 196 147 135 146 151 144 135 138 136 129 126 125 121 119 122 120 115 116 112 111 116 118 115 117 110 101 96 84 82 89 89
120 100 109 86 59 200 252 258 163 152 162 152 146 149 147 142 129 116 127 124 123 128 126 121 118 114 108 107 109 106 105 104 104 103 104 109 112 109 103 96 96 94 91 90
125 120 106 106 122 287 309 335 58 132 125 140 133 128 122 113 88 65 88 119 129 131 128 122 119 115 108 105 109 107 102 99 98 96 95 101 109 109 106 103 105 103 97 88
72 97 106 111 131 204 268 301 297 105 80 302 134 138 139 121 113 156 137 115 112 109 109 110 108 106 104 103 106 102 99 94 93 94 93 91 97 101 102 103 103 97 94 91
61 66 106 125 152 260 278 304 16 119 197 218 139 141 138 127 143 142 124 113 116 115 113 110 106 101 102 105 104 102 99 97 98 96 90 83 85 95 98 97 95 95 94 90
149 135 147 130 150 251 301 8 98 190 178 126 117 121 116 113 115 117 118 119 119 116 113 111 106 98 92 98 103 101 100 102 98 94 88 80 75 85 91 93 90 90 94 91
167 178 167 166 195 235 309 110 154 131 105 104 113 118 119 118 120 119 118 118 115 114 112 110 110 102 91 90 102 108 108 103 97 91 85 77 72 70 76 88 94 91 89 90
331 36 98 91 76 61 48 58 62 77 91 98 113 120 119 120 122 118 116 113 110 111 114 115 112 109 103 97 99 106 108 104 99 93 88 83 82 76 69 67 73 87 91 93
285 44 70 84 121 53 29 45 70 73 84 91 101 112 119 120 123 123 120 116 112 107 109 112 115 115 112 106 99 99 103 107 103 99 96 91 88 90 81 71 60 69 64 95
332 120 134 189 205 144 164 352 87 92 92 107 112 107 110 118 121 119 117 116 116 113 112 111 111 111 110 108 103 98 103 111 111 107 102 101 103 98 96 95 77 56 68 71